TELSTAR 18V

Last updated on Wed Nov 20 2024 00:02:42 GMT+0000 (Coordinated Universal Time)

1 43611U 18069A 24323.82173164 -.00000291 00000+0 00000+0 0 9996 2 43611 0.0174 301.1101 0002011 294.9140 256.1687 1.00270936 22860
UTC large
Height (km)
Speed (km/s)
/
Latitude / Longitude
Inclination (degrees)
Orbital Period (minutes)
Azimuth
Elevation
Range (km)
Doppler Factor

Next 0 passes for location: London (51.5072 / 0.1276)

Sorry there are no passes over London.